| time (UTC) | temp C | wind direction | speed KPH | gust KPH | rain 1hr cm | rain 24hr cm | rain mn cm | humidity % | barometer mb |
| 20260906225904 | 26 | 104 | 1.6 | 9.7 | 0.00 | 0.00 | 0.00 | 8 | 1016.0 |
| 20260906225404 | 26 | 214 | 8.0 | 14.5 | 0.00 | 0.00 | 0.00 | 8 | 1016.0 |
| 20260906224904 | 26 | 217 | 6.4 | 19.3 | 0.00 | 0.00 | 0.00 | 9 | 1016.0 |
| 20260906224404 | 26 | 244 | 6.4 | 12.9 | 0.00 | 0.00 | 0.00 | 8 | 1015.9 |
| 20260906223904 | 26 | 226 | 6.4 | 19.3 | 0.00 | 0.00 | 0.00 | 9 | 1015.9 |
| 20260906223404 | 26 | 234 | 6.4 | 24.1 | 0.00 | 0.00 | 0.00 | 8 | 1015.9 |
| 20260906222904 | 26 | 228 | 8.0 | 20.9 | 0.00 | 0.00 | 0.00 | 9 | 1015.9 |
| 20260906221904 | 26 | 242 | 9.7 | 20.9 | 0.00 | 0.00 | 0.00 | 8 | 1015.9 |
| 20260906221404 | 26 | 227 | 9.7 | 19.3 | 0.00 | 0.00 | 0.00 | 8 | 1015.9 |
| 20260906220904 | 26 | 224 | 9.7 | 14.5 | 0.00 | 0.00 | 0.00 | 8 | 1015.8 |
| 20260906220404 | 26 | 224 | 8.0 | 16.1 | 0.00 | 0.00 | 0.00 | 8 | 1015.7 |
| 20260906215904 | 26 | 223 | 14.5 | 25.7 | 0.00 | 0.00 | 0.00 | 8 | 1015.6 |
| 20260906214404 | 26 | 222 | 11.3 | 25.7 | 0.00 | 0.00 | 0.00 | 7 | 1015.7 |
| 20260906213904 | 26 | 224 | 9.7 | 24.1 | 0.00 | 0.00 | 0.00 | 6 | 1015.9 |
| 20260906213404 | 26 | 248 | 11.3 | 25.7 | 0.00 | 0.00 | 0.00 | 7 | 1016.0 |
| 20260906211904 | 26 | 205 | 11.3 | 22.5 | 0.00 | 0.00 | 0.00 | 5 | 1016.0 |
| 20260906211404 | 27 | 228 | 3.2 | 32.2 | 0.00 | 0.00 | 0.00 | 6 | 1016.2 |
| 20260906210904 | 27 | 232 | 14.5 | 33.8 | 0.00 | 0.00 | 0.00 | 5 | 1016.2 |
| 20260906210404 | 27 | 221 | 17.7 | 37.0 | 0.00 | 0.00 | 0.00 | 4 | 1016.3 |
| 20260906205904 | 27 | 218 | 4.8 | 27.4 | 0.00 | 0.00 | 0.00 | 6 | 1016.5 |
| 20260906205404 | 27 | 222 | 9.7 | 20.9 | 0.00 | 0.00 | 0.00 | 5 | 1016.5 |
| 20260906204404 | 27 | 227 | 16.1 | 25.7 | 0.00 | 0.00 | 0.00 | 4 | 1016.5 |
| 20260906203904 | 27 | 230 | 16.1 | 29.0 | 0.00 | 0.00 | 0.00 | 4 | 1016.4 |
| 20260906203404 | 27 | 230 | 16.1 | 27.4 | 0.00 | 0.00 | 0.00 | 4 | 1016.4 |
| 20260906202404 | 27 | 225 | 14.5 | 25.7 | 0.00 | 0.00 | 0.00 | 5 | 1016.4 |
| 20260906201904 | 27 | 252 | 6.4 | 22.5 | 0.00 | 0.00 | 0.00 | 5 | 1016.4 |
| 20260906201404 | 27 | 224 | 9.7 | 19.3 | 0.00 | 0.00 | 0.00 | 6 | 1016.4 |
| 20260906200904 | 27 | 222 | 9.7 | 29.0 | 0.00 | 0.00 | 0.00 | 5 | 1016.5 |
| 20260906200404 | 27 | 214 | 12.9 | 22.5 | 0.00 | 0.00 | 0.00 | 5 | 1016.5 |
| 20260906195904 | 27 | 221 | 9.7 | 20.9 | 0.00 | 0.00 | 0.00 | 5 | 1016.5 |
| 20260906195404 | 27 | 220 | 12.9 | 27.4 | 0.00 | 0.00 | 0.00 | 5 | 1016.5 |
| 20260906194904 | 27 | 235 | 9.7 | 19.3 | 0.00 | 0.00 | 0.00 | 5 | 1016.5 |
| 20260906194404 | 27 | 236 | 9.7 | 20.9 | 0.00 | 0.00 | 0.00 | 5 | 1016.6 |
| 20260906192904 | 27 | 228 | 14.5 | 19.3 | 0.00 | 0.00 | 0.00 | 4 | 1016.9 |
| 20260906192404 | 27 | 218 | 12.9 | 20.9 | 0.00 | 0.00 | 0.00 | 4 | 1017.1 |
| 20260906191904 | 27 | 235 | 6.4 | 24.1 | 0.00 | 0.00 | 0.00 | 5 | 1017.1 |
| 20260906191404 | 27 | 154 | 3.2 | 14.5 | 0.00 | 0.00 | 0.00 | 6 | 1017.2 |
| 20260906190904 | 26 | 199 | 3.2 | 11.3 | 0.00 | 0.00 | 0.00 | 6 | 1017.3 |
| 20260906190404 | 26 | 241 | 3.2 | 9.7 | 0.00 | 0.00 | 0.00 | 6 | 1017.3 |
| 20260906185905 | 26 | 192 | 3.2 | 12.9 | 0.00 | 0.00 | 0.00 | 7 | 1017.4 |
| 20260906185404 | 26 | 220 | 0.0 | 19.3 | 0.00 | 0.00 | 0.00 | 7 | 1017.5 |
| 20260906184904 | 26 | 221 | 9.7 | 19.3 | 0.00 | 0.00 | 0.00 | 8 | 1017.7 |
| 20260906184404 | 25 | 230 | 11.3 | 19.3 | 0.00 | 0.00 | 0.00 | 8 | 1017.7 |
| 20260906183904 | 25 | 214 | 14.5 | 22.5 | 0.00 | 0.00 | 0.00 | 8 | 1017.7 |
| 20260906183404 | 25 | 223 | 9.7 | 20.9 | 0.00 | 0.00 | 0.00 | 9 | 1017.8 |
| 20260906182904 | 25 | 229 | 4.8 | 19.3 | 0.00 | 0.00 | 0.00 | 10 | 1017.8 |
| 20260906182404 | 25 | 227 | 8.0 | 20.9 | 0.00 | 0.00 | 0.00 | 9 | 1017.9 |
| 20260906181904 | 25 | 213 | 9.7 | 27.4 | 0.00 | 0.00 | 0.00 | 10 | 1018.0 |
| 20260906181404 | 25 | 228 | 14.5 | 25.7 | 0.00 | 0.00 | 0.00 | 9 | 1018.2 |
| 20260906180904 | 25 | 212 | 6.4 | 14.5 | 0.00 | 0.00 | 0.00 | 11 | 1018.2 |
| 20260906180404 | 25 | 214 | 4.8 | 12.9 | 0.00 | 0.00 | 0.00 | 11 | 1018.4 |
| 20260906175904 | 24 | 215 | 1.6 | 9.7 | 0.00 | 0.00 | 0.00 | 14 | 1018.4 |
| 20260906175404 | 23 | 146 | 0.0 | 1.6 | 0.00 | 0.00 | 0.00 | 16 | 1018.5 |
| 20260906174904 | 23 | 148 | 1.6 | 4.8 | 0.00 | 0.00 | 0.00 | 16 | 1018.7 |
| 20260906174404 | 23 | 240 | 0.0 | 0.0 | 0.00 | 0.00 | 0.00 | 19 | 1018.7 |
| 20260906173904 | 22 | 243 | 0.0 | 3.2 | 0.00 | 0.00 | 0.00 | 20 | 1018.8 |
| 20260906172904 | 21 | 229 | 0.0 | 0.0 | 0.00 | 0.00 | 0.00 | 23 | 1019.0 |
| 20260906172404 | 21 | 230 | 0.0 | 0.0 | 0.00 | 0.00 | 0.00 | 22 | 1019.1 |
| 20260906171904 | 21 | 229 | 0.0 | 0.0 | 0.00 | 0.00 | 0.00 | 22 | 1019.2 |
| 20260906171404 | 20 | 229 | 0.0 | 3.2 | 0.00 | 0.00 | 0.00 | 27 | 1019.2 |
| 20260906170404 | 20 | 232 | 0.0 | 4.8 | 0.00 | 0.00 | 0.00 | 25 | 1019.4 |
| 20260906165904 | 20 | 219 | 0.0 | 4.8 | 0.00 | 0.00 | 0.00 | 26 | 1019.5 |
| 20260906165404 | 19 | 217 | 0.0 | 0.0 | 0.00 | 0.00 | 0.00 | 26 | 1019.5 |
| 20260906164904 | 18 | 216 | 0.0 | 0.0 | 0.00 | 0.00 | 0.00 | 28 | 1019.5 |
| 20260906164404 | 18 | 217 | 0.0 | 0.0 | 0.00 | 0.00 | 0.00 | 28 | 1019.7 |
| 20260906163904 | 18 | 219 | 0.0 | 0.0 | 0.00 | 0.00 | 0.00 | 30 | 1019.7 |
| 20260906163404 | 17 | 219 | 0.0 | 0.0 | 0.00 | 0.00 | 0.00 | 33 | 1019.8 |
| 20260906162904 | 17 | 219 | 0.0 | 0.0 | 0.00 | 0.00 | 0.00 | 32 | 1019.9 |
| 20260906162404 | 17 | 219 | 0.0 | 0.0 | 0.00 | 0.00 | 0.00 | 34 | 1020.0 |
| 20260906161904 | 16 | 219 | 0.0 | 0.0 | 0.00 | 0.00 | 0.00 | 34 | 1020.0 |
| 20260906160904 | 15 | 219 | 0.0 | 0.0 | 0.00 | 0.00 | 0.00 | 37 | 1020.2 |
| 20260906160404 | 15 | 219 | 0.0 | 0.0 | 0.00 | 0.00 | 0.00 | 38 | 1020.3 |
| 20260906155404 | 14 | 220 | 0.0 | 0.0 | 0.00 | 0.00 | 0.00 | 42 | 1020.4 |
| 20260906154404 | 12 | 220 | 0.0 | 0.0 | 0.00 | 0.00 | 0.00 | 44 | 1020.5 |
| 20260906153404 | 11 | 220 | 0.0 | 0.0 | 0.00 | 0.00 | 0.00 | 52 | 1020.7 |
| 20260906152904 | 11 | 220 | 0.0 | 0.0 | 0.00 | 0.00 | 0.00 | 54 | 1020.7 |
| 20260906150904 | 8 | 220 | 0.0 | 0.0 | 0.00 | 0.00 | 0.00 | 62 | 1020.9 |
| 20260906150404 | 7 | 219 | 0.0 | 0.0 | 0.00 | 0.00 | 0.00 | 66 | 1021.0 |
| 20260906145904 | 6 | 219 | 0.0 | 0.0 | 0.00 | 0.00 | 0.00 | 69 | 1021.0 |
| 20260906145404 | 6 | 219 | 0.0 | 0.0 | 0.00 | 0.00 | 0.00 | 71 | 1021.1 |
| 20260906144904 | 5 | 219 | 0.0 | 0.0 | 0.00 | 0.00 | 0.00 | 73 | 1021.1 |
| 20260906144404 | 5 | 219 | 0.0 | 0.0 | 0.00 | 0.00 | 0.00 | 73 | 1021.1 |
| 20260906143904 | 5 | 219 | 0.0 | 0.0 | 0.00 | 0.00 | 0.00 | 73 | 1021.2 |
| 20260906143404 | 5 | 219 | 0.0 | 0.0 | 0.00 | 0.00 | 0.00 | 73 | 1021.2 |
| 20260906142904 | 4 | 219 | 0.0 | 0.0 | 0.00 | 0.00 | 0.00 | 73 | 1021.2 |
| 20260906142404 | 4 | 219 | 0.0 | 0.0 | 0.00 | 0.00 | 0.00 | 73 | 1021.1 |
| 20260906141404 | 3 | 219 | 0.0 | 0.0 | 0.00 | 0.00 | 0.00 | 72 | 1021.2 |
| 20260906140405 | 3 | 219 | 0.0 | 0.0 | 0.00 | 0.00 | 0.00 | 72 | 1021.2 |
| 20260906135904 | 3 | 219 | 0.0 | 0.0 | 0.00 | 0.00 | 0.00 | 71 | 1021.2 |
| 20260906135404 | 3 | 219 | 0.0 | 0.0 | 0.00 | 0.00 | 0.00 | 71 | 1021.2 |
| 20260906134904 | 3 | 219 | 0.0 | 0.0 | 0.00 | 0.00 | 0.00 | 70 | 1021.2 |
| 20260906133904 | 3 | 219 | 0.0 | 0.0 | 0.00 | 0.00 | 0.00 | 69 | 1021.1 |
| 20260906133404 | 3 | 219 | 0.0 | 0.0 | 0.00 | 0.00 | 0.00 | 69 | 1021.1 |
| 20260906132404 | 3 | 219 | 0.0 | 0.0 | 0.00 | 0.00 | 0.00 | 68 | 1021.0 |
| 20260906131904 | 3 | 219 | 0.0 | 0.0 | 0.00 | 0.00 | 0.00 | 68 | 1021.0 |
| 20260906131403 | 3 | 219 | 0.0 | 0.0 | 0.00 | 0.00 | 0.00 | 68 | 1020.9 |
| 20260906130904 | 3 | 219 | 0.0 | 0.0 | 0.00 | 0.00 | 0.00 | 67 | 1021.0 |
| 20260906130404 | 3 | 219 | 0.0 | 0.0 | 0.00 | 0.00 | 0.00 | 67 | 1020.9 |
| 20260906125904 | 4 | 219 | 0.0 | 0.0 | 0.00 | 0.00 | 0.00 | 66 | 1020.9 |
| 20260906125404 | 4 | 219 | 0.0 | 0.0 | 0.00 | 0.00 | 0.00 | 66 | 1021.0 |
| 20260906124904 | 4 | 219 | 0.0 | 0.0 | 0.00 | 0.00 | 0.00 | 66 | 1020.9 |
| 20260906124404 | 4 | 219 | 0.0 | 0.0 | 0.00 | 0.00 | 0.00 | 66 | 1020.9 |
| 20260906123904 | 4 | 219 | 0.0 | 0.0 | 0.00 | 0.00 | 0.00 | 66 | 1020.7 |
| 20260906122904 | 5 | 219 | 0.0 | 0.0 | 0.00 | 0.00 | 0.00 | 65 | 1020.6 |
| 20260906122404 | 5 | 219 | 0.0 | 0.0 | 0.00 | 0.00 | 0.00 | 65 | 1020.6 |
| 20260906121904 | 5 | 219 | 0.0 | 0.0 | 0.00 | 0.00 | 0.00 | 65 | 1020.5 |
| 20260906121404 | 5 | 219 | 0.0 | 0.0 | 0.00 | 0.00 | 0.00 | 65 | 1020.5 |
| 20260906120904 | 5 | 219 | 0.0 | 0.0 | 0.00 | 0.00 | 0.00 | 64 | 1020.5 |
| 20260906120404 | 5 | 219 | 0.0 | 0.0 | 0.00 | 0.00 | 0.00 | 64 | 1020.6 |
| 20260906115904 | 5 | 219 | 0.0 | 0.0 | 0.00 | 0.00 | 0.00 | 64 | 1020.6 |
| 20260906115404 | 5 | 219 | 0.0 | 0.0 | 0.00 | 0.00 | 0.00 | 64 | 1020.6 |
| 20260906114904 | 5 | 219 | 0.0 | 0.0 | 0.00 | 0.00 | 0.00 | 63 | 1020.5 |
| 20260906114404 | 5 | 219 | 0.0 | 0.0 | 0.00 | 0.00 | 0.00 | 63 | 1020.4 |
| 20260906113905 | 5 | 219 | 0.0 | 0.0 | 0.00 | 0.00 | 0.00 | 63 | 1020.4 |
| 20260906113404 | 5 | 219 | 0.0 | 0.0 | 0.00 | 0.00 | 0.00 | 63 | 1020.4 |
| 20260906112904 | 5 | 219 | 0.0 | 0.0 | 0.00 | 0.00 | 0.00 | 63 | 1020.4 |
| 20260906112404 | 5 | 219 | 0.0 | 0.0 | 0.00 | 0.00 | 0.00 | 63 | 1020.5 |
| 20260906111904 | 5 | 220 | 0.0 | 0.0 | 0.00 | 0.00 | 0.00 | 63 | 1020.5 |
| 20260906111404 | 5 | 220 | 0.0 | 0.0 | 0.00 | 0.00 | 0.00 | 63 | 1020.5 |
| 20260906110905 | 5 | 220 | 0.0 | 0.0 | 0.00 | 0.00 | 0.00 | 63 | 1020.4 |
| 20260906105904 | 5 | 220 | 0.0 | 0.0 | 0.00 | 0.00 | 0.00 | 63 | 1020.4 |
| 20260906105404 | 6 | 220 | 0.0 | 0.0 | 0.00 | 0.00 | 0.00 | 63 | 1020.4 |
| 20260906104904 | 6 | 220 | 0.0 | 0.0 | 0.00 | 0.00 | 0.00 | 63 | 1020.4 |
| 20260906103904 | 6 | 220 | 0.0 | 0.0 | 0.00 | 0.00 | 0.00 | 63 | 1020.2 |
| 20260906103404 | 6 | 220 | 0.0 | 0.0 | 0.00 | 0.00 | 0.00 | 63 | 1020.2 |
| 20260906102904 | 6 | 220 | 0.0 | 0.0 | 0.00 | 0.00 | 0.00 | 63 | 1020.1 |
| 20260906102404 | 6 | 220 | 0.0 | 0.0 | 0.00 | 0.00 | 0.00 | 63 | 1020.1 |
| 20260906101904 | 6 | 220 | 0.0 | 0.0 | 0.00 | 0.00 | 0.00 | 62 | 1020.0 |
| 20260906101404 | 6 | 220 | 0.0 | 0.0 | 0.00 | 0.00 | 0.00 | 62 | 1020.1 |
| 20260906100904 | 6 | 220 | 0.0 | 0.0 | 0.00 | 0.00 | 0.00 | 63 | 1020.1 |
| 20260906100404 | 6 | 220 | 0.0 | 0.0 | 0.00 | 0.00 | 0.00 | 63 | 1020.1 |
| 20260906095904 | 6 | 220 | 0.0 | 0.0 | 0.00 | 0.00 | 0.00 | 63 | 1020.1 |
| 20260906095404 | 7 | 220 | 0.0 | 0.0 | 0.00 | 0.00 | 0.00 | 63 | 1020.1 |
| 20260906094904 | 7 | 220 | 0.0 | 0.0 | 0.00 | 0.00 | 0.00 | 63 | 1020.1 |
| 20260906094404 | 7 | 220 | 0.0 | 0.0 | 0.00 | 0.00 | 0.00 | 62 | 1020.0 |
| 20260906093904 | 7 | 220 | 0.0 | 0.0 | 0.00 | 0.00 | 0.00 | 62 | 1020.0 |
| 20260906092904 | 7 | 220 | 0.0 | 0.0 | 0.00 | 0.00 | 0.00 | 61 | 1019.9 |
| 20260906092404 | 7 | 220 | 0.0 | 0.0 | 0.00 | 0.00 | 0.00 | 60 | 1019.9 |
| 20260906091904 | 7 | 220 | 0.0 | 0.0 | 0.00 | 0.00 | 0.00 | 60 | 1019.9 |
| 20260906091404 | 7 | 220 | 0.0 | 0.0 | 0.00 | 0.00 | 0.00 | 60 | 1019.9 |
| 20260906090904 | 7 | 220 | 0.0 | 0.0 | 0.00 | 0.00 | 0.00 | 60 | 1020.0 |
| 20260906085904 | 7 | 220 | 0.0 | 0.0 | 0.00 | 0.00 | 0.00 | 58 | 1019.9 |
| 20260906085404 | 7 | 220 | 0.0 | 0.0 | 0.00 | 0.00 | 0.00 | 58 | 1019.9 |
| 20260906084904 | 7 | 220 | 0.0 | 0.0 | 0.00 | 0.00 | 0.00 | 58 | 1019.9 |
| 20260906084404 | 7 | 220 | 0.0 | 0.0 | 0.00 | 0.00 | 0.00 | 58 | 1019.9 |
| 20260906083904 | 7 | 220 | 0.0 | 0.0 | 0.00 | 0.00 | 0.00 | 57 | 1019.9 |
| 20260906083403 | 7 | 220 | 0.0 | 0.0 | 0.00 | 0.00 | 0.00 | 56 | 1019.8 |
| 20260906082904 | 7 | 220 | 0.0 | 0.0 | 0.00 | 0.00 | 0.00 | 56 | 1019.9 |
| 20260906082404 | 7 | 220 | 0.0 | 0.0 | 0.00 | 0.00 | 0.00 | 56 | 1019.9 |
| 20260906081404 | 8 | 220 | 0.0 | 0.0 | 0.00 | 0.00 | 0.00 | 55 | 1019.8 |
| 20260906080904 | 8 | 220 | 0.0 | 0.0 | 0.00 | 0.00 | 0.00 | 55 | 1019.8 |
| 20260906080404 | 8 | 220 | 0.0 | 0.0 | 0.00 | 0.00 | 0.00 | 55 | 1019.8 |
| 20260906074904 | 8 | 220 | 0.0 | 0.0 | 0.00 | 0.00 | 0.00 | 55 | 1019.7 |
| 20260906074404 | 8 | 220 | 0.0 | 0.0 | 0.00 | 0.00 | 0.00 | 54 | 1019.8 |
| 20260906073905 | 8 | 220 | 0.0 | 0.0 | 0.00 | 0.00 | 0.00 | 54 | 1019.8 |
| 20260906073404 | 8 | 220 | 0.0 | 0.0 | 0.00 | 0.00 | 0.00 | 53 | 1019.8 |
| 20260906072904 | 8 | 220 | 0.0 | 0.0 | 0.00 | 0.00 | 0.00 | 53 | 1019.7 |
| 20260906071404 | 8 | 220 | 0.0 | 0.0 | 0.00 | 0.00 | 0.00 | 53 | 1019.7 |
| 20260906070404 | 8 | 220 | 0.0 | 0.0 | 0.00 | 0.00 | 0.00 | 55 | 1019.7 |
| 20260906065904 | 8 | 220 | 0.0 | 0.0 | 0.00 | 0.00 | 0.00 | 53 | 1019.7 |
| 20260906065404 | 8 | 220 | 0.0 | 0.0 | 0.00 | 0.00 | 0.00 | 53 | 1019.6 |
| 20260906064405 | 8 | 220 | 0.0 | 0.0 | 0.00 | 0.00 | 0.00 | 53 | 1019.6 |
| 20260906062904 | 8 | 220 | 0.0 | 0.0 | 0.00 | 0.00 | 0.00 | 53 | 1019.7 |
| 20260906062404 | 8 | 220 | 0.0 | 0.0 | 0.00 | 0.00 | 0.00 | 52 | 1019.8 |
| 20260906061904 | 8 | 220 | 0.0 | 0.0 | 0.00 | 0.00 | 0.00 | 53 | 1019.7 |
| 20260906061404 | 9 | 220 | 0.0 | 0.0 | 0.00 | 0.00 | 0.00 | 52 | 1019.6 |
| 20260906060404 | 9 | 220 | 0.0 | 0.0 | 0.00 | 0.00 | 0.00 | 53 | 1019.6 |
| 20260906055904 | 9 | 220 | 0.0 | 0.0 | 0.00 | 0.00 | 0.00 | 53 | 1019.8 |
| 20260906055404 | 9 | 220 | 0.0 | 0.0 | 0.00 | 0.00 | 0.00 | 53 | 1019.6 |
| 20260906054904 | 9 | 220 | 0.0 | 0.0 | 0.00 | 0.00 | 0.00 | 53 | 1019.7 |
| 20260906054404 | 9 | 220 | 0.0 | 0.0 | 0.00 | 0.00 | 0.00 | 52 | 1019.7 |
| 20260906053904 | 9 | 220 | 0.0 | 0.0 | 0.00 | 0.00 | 0.00 | 53 | 1019.8 |
| 20260906053404 | 9 | 220 | 0.0 | 0.0 | 0.00 | 0.00 | 0.00 | 51 | 1019.8 |
| 20260906051904 | 9 | 220 | 0.0 | 0.0 | 0.00 | 0.00 | 0.00 | 52 | 1019.9 |
| 20260906050904 | 10 | 220 | 0.0 | 0.0 | 0.00 | 0.00 | 0.00 | 52 | 1019.9 |
| 20260906050404 | 10 | 220 | 0.0 | 0.0 | 0.00 | 0.00 | 0.00 | 51 | 1019.9 |
| 20260906045904 | 10 | 220 | 0.0 | 0.0 | 0.00 | 0.00 | 0.00 | 49 | 1020.0 |
| 20260906045404 | 10 | 220 | 0.0 | 0.0 | 0.00 | 0.00 | 0.00 | 47 | 1019.9 |
| 20260906044904 | 10 | 220 | 0.0 | 0.0 | 0.00 | 0.00 | 0.00 | 47 | 1019.9 |
| 20260906044404 | 10 | 220 | 0.0 | 0.0 | 0.00 | 0.00 | 0.00 | 48 | 1019.9 |
| 20260906043404 | 10 | 220 | 0.0 | 0.0 | 0.00 | 0.00 | 0.00 | 48 | 1019.9 |
| 20260906042904 | 11 | 220 | 0.0 | 0.0 | 0.00 | 0.00 | 0.00 | 46 | 1019.9 |
| 20260906042404 | 11 | 220 | 0.0 | 0.0 | 0.00 | 0.00 | 0.00 | 46 | 1019.9 |
| 20260906041904 | 11 | 220 | 0.0 | 0.0 | 0.00 | 0.00 | 0.00 | 46 | 1019.9 |
| 20260906041404 | 11 | 220 | 0.0 | 0.0 | 0.00 | 0.00 | 0.00 | 45 | 1019.9 |
| 20260906040904 | 11 | 220 | 0.0 | 0.0 | 0.00 | 0.00 | 0.00 | 44 | 1019.9 |
| 20260906035904 | 12 | 220 | 0.0 | 0.0 | 0.00 | 0.00 | 0.00 | 43 | 1019.7 |
| 20260906035405 | 12 | 220 | 0.0 | 0.0 | 0.00 | 0.00 | 0.00 | 43 | 1019.7 |
| 20260906034904 | 12 | 220 | 0.0 | 0.0 | 0.00 | 0.00 | 0.00 | 44 | 1019.7 |
| 20260906034404 | 12 | 220 | 0.0 | 0.0 | 0.00 | 0.00 | 0.00 | 41 | 1019.6 |
| 20260906033904 | 13 | 220 | 0.0 | 0.0 | 0.00 | 0.00 | 0.00 | 40 | 1019.6 |
| 20260906033404 | 13 | 220 | 0.0 | 0.0 | 0.00 | 0.00 | 0.00 | 41 | 1019.6 |
| 20260906032904 | 13 | 220 | 0.0 | 0.0 | 0.00 | 0.00 | 0.00 | 40 | 1019.5 |
| 20260906031904 | 14 | 220 | 0.0 | 0.0 | 0.00 | 0.00 | 0.00 | 36 | 1019.5 |
| 20260906031404 | 14 | 220 | 0.0 | 0.0 | 0.00 | 0.00 | 0.00 | 36 | 1019.5 |
| 20260906030904 | 15 | 220 | 0.0 | 0.0 | 0.00 | 0.00 | 0.00 | 36 | 1019.4 |
| 20260906030407 | 15 | 220 | 0.0 | 0.0 | 0.00 | 0.00 | 0.00 | 36 | 1019.3 |
| 20260906025405 | 15 | 220 | 0.0 | 0.0 | 0.00 | 0.00 | 0.00 | 32 | 1019.1 |
| 20260906024904 | 16 | 220 | 0.0 | 0.0 | 0.00 | 0.00 | 0.00 | 31 | 1019.0 |
| 20260906023904 | 17 | 220 | 0.0 | 0.0 | 0.00 | 0.00 | 0.00 | 31 | 1018.8 |
| 20260906023404 | 17 | 220 | 0.0 | 0.0 | 0.00 | 0.00 | 0.00 | 31 | 1018.6 |
| 20260906022904 | 18 | 220 | 0.0 | 0.0 | 0.00 | 0.00 | 0.00 | 32 | 1018.4 |
| 20260906022404 | 18 | 220 | 0.0 | 0.0 | 0.00 | 0.00 | 0.00 | 30 | 1018.3 |
| 20260906021904 | 19 | 220 | 0.0 | 0.0 | 0.00 | 0.00 | 0.00 | 27 | 1018.2 |
| 20260906021404 | 20 | 220 | 0.0 | 0.0 | 0.00 | 0.00 | 0.00 | 21 | 1018.1 |
| 20260906020404 | 20 | 220 | 0.0 | 0.0 | 0.00 | 0.00 | 0.00 | 19 | 1018.0 |
| 20260906014904 | 21 | 220 | 0.0 | 0.0 | 0.00 | 0.00 | 0.00 | 15 | 1017.8 |
| 20260906014404 | 22 | 220 | 0.0 | 0.0 | 0.00 | 0.00 | 0.00 | 15 | 1017.8 |
| 20260906013904 | 22 | 220 | 0.0 | 0.0 | 0.00 | 0.00 | 0.00 | 17 | 1017.8 |
| 20260906012904 | 23 | 220 | 0.0 | 0.0 | 0.00 | 0.00 | 0.00 | 15 | 1017.8 |
| 20260906012404 | 24 | 220 | 0.0 | 0.0 | 0.00 | 0.00 | 0.00 | 10 | 1017.8 |
| 20260906011904 | 25 | 220 | 0.0 | 0.0 | 0.00 | 0.00 | 0.00 | 13 | 1017.7 |
| 20260906011404 | 25 | 220 | 0.0 | 0.0 | 0.00 | 0.00 | 0.00 | 8 | 1017.7 |
| 20260906010904 | 25 | 220 | 0.0 | 0.0 | 0.00 | 0.00 | 0.00 | 5 | 1017.7 |
| 20260906005404 | 26 | 221 | 1.6 | 11.3 | 0.00 | 0.00 | 0.00 | 4 | 1017.6 |
| 20260906004904 | 26 | 229 | 0.0 | 8.0 | 0.00 | 0.00 | 0.00 | 4 | 1017.6 |
| 20260906003904 | 26 | 221 | 3.2 | 8.0 | 0.00 | 0.00 | 0.00 | 2 | 1017.7 |
| 20260906002904 | 26 | 234 | 3.2 | 14.5 | 0.00 | 0.00 | 0.00 | 2 | 1017.6 |
| 20260906002403 | 27 | 217 | 1.6 | 16.1 | 0.00 | 0.00 | 0.00 | 1 | 1017.6 |
| 20260906001904 | 27 | 220 | 1.6 | 8.0 | 0.00 | 0.00 | 0.00 | 2 | 1017.6 |
| 20260906001404 | 27 | 225 | 1.6 | 8.0 | 0.00 | 0.00 | 0.00 | 2 | 1017.6 |
| 20260906000904 | 27 | 225 | 11.3 | 27.4 | 0.00 | 0.00 | 0.00 | 1 | 1017.7 |
| 20260906000404 | 27 | 225 | 8.0 | 16.1 | 0.00 | 0.00 | 0.00 | 1 | 1017.7 |
| 20260905235404 | 28 | 231 | 3.2 | 16.1 | 0.00 | 0.00 | 0.00 | 1 | 1017.6 |
| 20260905234904 | 28 | 219 | 3.2 | 4.8 | 0.00 | 0.00 | 0.00 | 1 | 1017.7 |
| 20260905234404 | 28 | 213 | 1.6 | 9.7 | 0.00 | 0.00 | 0.00 | 1 | 1017.8 |
| 20260905233904 | 28 | 136 | 3.2 | 14.5 | 0.00 | 0.00 | 0.00 | 1 | 1017.7 |
| 20260905233403 | 28 | 147 | 3.2 | 12.9 | 0.00 | 0.00 | 0.00 | 1 | 1017.7 |
| 20260905232904 | 28 | 227 | 3.2 | 11.3 | 0.00 | 0.00 | 0.00 | 1 | 1017.7 |
| 20260905232404 | 28 | 229 | 8.0 | 19.3 | 0.00 | 0.00 | 0.00 | 1 | 1017.7 |
| 20260905231904 | 28 | 223 | 8.0 | 9.7 | 0.00 | 0.00 | 0.00 | 1 | 1017.7 |
| 20260905231404 | 28 | 223 | 4.8 | 14.5 | 0.00 | 0.00 | 0.00 | 1 | 1017.6 |
| 20260905230404 | 28 | 233 | 6.4 | 20.9 | 0.00 | 0.00 | 0.00 | 1 | 1017.6 |